Terminal Aerodrome Forecast
Issued by NWS Cleveland, OH

Home | Current Version | Previous Version | Graphics & Text | Print | Product List | Glossary On
Versions: 1 2 3 4 5 6 7 8 9 10 11 12 13 14 15
000
FTUS41 KCLE 201600 AAB
TAFMFD
TAF AMD
KMFD 201605Z 2016/2112 VRB04KT P6SM BKN035
     FM202300 18004KT P6SM SCT050
     FM210900 00000KT 4SM BR SKC=

USA.gov is the U.S. government's official web portal to all federal, state and local government web resources and services.